{"data":{"norad_id":55423,"epoch":"2026-09-20T22:00:03.000096Z","epoch_age_seconds":60623,"freshness":"FRESH","line1":"1 55423U 23014AJ  26263.91670139  .00092911  00000+0  66937-2 0  9998","line2":"2 55423  70.0006 312.2631 0004657 273.3932 108.0406 15.03635530  5660","mean_motion":15.0363553,"eccentricity":0.0004657,"inclination_deg":70.0006,"raan_deg":312.2631,"arg_perigee_deg":273.3932,"mean_anomaly_deg":108.0406,"bstar":0.0066937,"rev_number":566,"period_min":95.767888645196,"perigee_km":552.46815213201,"apogee_km":558.92632534197,"semimajor_km":6933.834238737,"source":"CELESTRAK","updated_at":"2026-09-21T09:00:33.220398Z"}}